Location: Chandolin
(46.2513°N, 7.5932°E)
Time: 11:58:32
(UTC+00:00)

Daily predictions for brighter satellites

Satellite Brightness Start Highest point End
(mag) Time Altitude Azimuth Time Altitude Azimuth Time Altitude Azimuth
BREEZE-M DEB (TANK) 4.1 15:58:02 10° W 16:01:45 75° N 16:14:15 10° ENE
MOS 1-B 4.4 16:09:00 10° SSE 16:14:46 69° ENE 16:20:33 10° N
Cosmos 2369 Rocket 3.0 16:10:00 10° N 16:14:56 29° NE 16:19:48 10° ESE
Cosmos 1943 Rocket 2.5 16:11:27 10° NNW 16:16:44 43° NE 16:22:03 10° SE
ADEOS Rocket 3.7 16:09:54 10° NNE 16:17:44 79° ESE 16:25:24 10° S
Cosmos 2221 4.2 16:15:02 10° SW 16:18:59 35° WNW 16:22:58 10° N
NOAA 12 4.4 16:14:07 10° SE 16:19:08 44° ENE 16:24:11 10° N
H-2A R/B 2.5 16:17:52 10° NNE 16:21:55 43° E 16:26:01 10° S
NOAA 6 4.0 16:20:41 10° SSE 16:25:49 81° ENE 16:30:59 10° NNW
Okean O Rocket 2.0 16:21:50 10° SE 16:25:55 41° ENE 16:30:03 10° N
Cosmos 1782 4.1 16:23:35 10° SE 16:26:37 21° E 16:29:41 10° NE
Okean-O 4.4 16:26:29 10° ENE 16:27:59 12° ENE 16:29:27 10° NE
CRYOSAT 2 4.4 16:24:29 10° N 16:29:22 62° E 16:34:13 10° S
ISS -2.6 16:27:01 10° WNW 16:30:05 31° N 16:32:58 11° ENE
H-2A R/B 3.3 16:26:34 10° S 16:30:23 64° W 16:34:16 10° NNW
Cosmos 1633 Rocket 3.2 16:26:21 10° N 16:30:38 50° ENE 16:34:51 10° SSE
Cosmos 1933 3.5 16:28:13 10° S 16:32:08 51° E 16:36:07 10° NNE
Meteor 2-12 Rocket 4.5 16:28:36 10° N 16:34:48 89° E 16:40:55 10° S
Cosmos 2218 Rocket 4.1 16:31:04 10° N 16:37:05 53° ENE 16:43:05 10° SSE
Cosmos 2366 rocket 4.1 16:32:01 10° N 16:38:02 52° ENE 16:44:00 10° SSE
Cosmos 1867 4.0 16:33:19 10° SW 16:38:42 61° NW 16:44:08 10° NNE
ERS-2 3.6 16:36:11 10° NE 16:38:53 20° E 16:41:37 10° SE
Meteor 1-25 Rocket 4.2 16:33:17 10° N 16:38:54 64° ENE 16:44:33 10° SSE
Envisat 3.3 16:37:01 10° S 16:42:05 73° WSW 16:47:11 10° NNW
Lacrosse 5 rocket 1.6 16:43:40 10° WSW 16:47:15 51° NW 16:50:15 14° NE
Cosmos 773 Rocket 4.0 16:43:09 10° S 16:48:23 69° ESE 16:53:39 10° NNE
SL-23 DEB 4.4 16:45:16 10° SW 16:48:39 50° SE 16:52:39 15° ENE
YAOGAN 6 3.1 16:47:36 10° S 16:51:12 62° W 16:54:46 10° NNW
Cosmos 1606 3.8 16:50:08 10° SSW 16:53:53 47° WNW 16:57:40 10° N
Cosmos 2297 4.3 16:48:56 10° NNW 16:54:34 64° WSW 17:00:12 10° SSE
OE (NEXTSAT) 4.3 16:52:38 10° W 16:56:06 88° S 16:58:30 19° E
AQUARIUS 4.1 16:51:50 10° SSE 16:56:18 83° ENE 17:00:49 10° NNW
FengYun 1-2 T 4.2 16:50:51 10° SSE 16:56:19 65° ENE 17:01:46 10° N
SL-16 R/B 2.5 16:52:48 10° SSW 16:58:27 71° WNW 17:04:08 10° NNE
CZ-4B R/B 1.8 16:56:26 16° NE 16:58:29 35° E 17:01:26 10° SSE
Landsat 5 4.3 16:55:11 10° N 16:59:35 59° WNW 17:04:01 10° SSW
BREEZE-M DEB (TANK) 1.4 17:00:14 10° WSW 17:02:43 82° SSE 17:03:26 34° ENE
USA 215 4.2 16:59:20 16° ENE 17:03:35 30° SE 17:09:12 10° S
SMAP 3.3 17:00:42 10° S 17:05:20 72° WSW 17:10:01 10° NNW
Cosmos 1500 4.0 17:02:46 10° NNE 17:06:09 29° ENE 17:09:32 10° SE
YAOGAN 1 3.7 17:09:19 22° ENE 17:09:19 22° ENE 17:12:32 10° NNE
USA 238 DEB 4.5 17:04:23 10° S 17:09:54 30° ESE 17:13:06 20° ENE
USA 238 4.5 17:04:30 10° S 17:10:01 29° ESE 17:13:10 20° ENE
Cosmos 1656 Rocket 4.0 17:05:20 10° NNW 17:10:39 41° NE 17:15:53 10° SE
Cosmos 1151 Rocket 3.2 17:08:00 10° SSW 17:12:16 73° W 17:16:33 10° N
Cosmos 1470 Rocket 3.4 17:08:49 10° N 17:13:10 80° E 17:17:29 10° SSE
Cosmos 2263 4.2 17:14:02 10° NNW 17:19:36 59° ENE 17:25:07 10° SE
Cosmos 1515 Rocket 3.5 17:15:54 10° S 17:20:15 70° E 17:24:40 10° NNE
CZ-2C R/B 3.4 17:16:37 10° SE 17:21:08 36° ENE 17:25:31 10° N
Cosmos 1238 Rocket 3.6 17:21:34 10° N 17:25:18 35° ENE 17:29:43 10° SE
COSMO-SKYMED 1 2.7 17:23:06 18° NNE 17:26:10 53° E 17:30:25 10° S
TELKOM 3 4.1 17:24:09 10° WNW 17:26:18 34° NNW 17:26:18 34° NNW
Cosmos 1689 Rocket 4.2 17:29:02 15° SSE 17:29:02 15° SSE 17:29:45 10° SSE
USA 281 3.4 17:21:57 10° SE 17:28:07 46° NE 17:34:20 10° NNW
X-37B 0.9 17:25:48 10° WSW 17:28:55 57° SSE 17:29:28 48° SE
YAOGAN 3 4.4 17:24:55 10° SSE 17:29:16 78° ENE 17:33:39 10° N
Nadezhda 3 Rocket 4.2 17:23:33 10° SSE 17:29:39 51° E 17:35:46 10° NNE
SAR-Lupe-4 3.8 17:29:14 43° ENE 17:29:44 47° E 17:33:13 10° S
Helios 1A Rocket 3.6 17:33:25 34° NE 17:33:25 34° NE 17:36:22 10° N
Meteor 2-6 Rocket 4.2 17:27:17 10° S 17:32:41 53° E 17:37:14 14° NNE
Cosmos 2228 Rocket 3.3 17:28:32 10° SSE 17:32:51 46° E 17:34:29 32° NE
Meteor 1-4 Rocket 3.2 17:30:45 10° SSW 17:34:16 53° WNW 17:37:26 12° N
H-2A R/B 2.6 17:35:17 33° E 17:36:00 35° ENE 17:40:37 10° N
Cosmos 1812 2.9 17:33:00 10° SSE 17:36:35 47° E 17:36:35 47° E
USA 267 3.6 17:34:11 28° ENE 17:37:18 47° NNE 17:43:31 10° NW
Cosmos 1821 Rocket 3.9 17:31:46 10° N 17:37:59 64° ENE 17:44:16 10° SSE
Cosmos 1939 Rocket 2.8 17:34:40 10° SSE 17:38:32 84° WSW 17:42:30 10° NNW
CZ-4 R/B 4.3 17:36:14 10° SSE 17:40:20 70° ENE 17:44:29 10° N
CZ-4 R/B 1.7 17:41:26 44° NE 17:41:26 44° NE 17:44:44 10° N
Meteor 1-11 Rocket 4.0 17:35:30 10° N 17:41:02 44° ENE 17:46:37 10° SE
PSLV R/B 3.9 17:42:20 51° E 17:42:33 52° E 17:46:29 10° S
BREEZE-M DEB (TANK) 3.6 17:40:06 10° SSW 17:42:53 23° SSE 17:42:53 23° SSE
Cosmos 44 Rocket 3.4 17:38:04 10° NNW 17:43:12 59° NE 17:45:09 36° ESE
Cosmos 1933 Rocket 3.8 17:38:45 10° NNW 17:43:14 74° W 17:47:39 10° S
CSL-04 Rocket 4.2 17:44:05 35° NE 17:44:05 35° NE 17:48:18 10° N
IRS-1C Rocket 4.0 17:39:35 10° SSE 17:44:52 87° ENE 17:50:11 10° NNW
Cosmos 546 4.5 17:42:05 10° WSW 17:45:53 74° SSE 17:46:15 67° ESE
SAR-Lupe-1 3.9 17:46:35 72° ENE 17:46:44 74° ESE 17:50:18 10° S
Lacrosse 4 Rocket 3.4 17:45:59 10° SSE 17:46:59 15° SSE 17:46:59 15° SSE
Cosmos 1680 Rocket 3.7 17:44:43 10° S 17:49:45 47° ESE 17:50:18 45° E
SKYMED 3 4.5 17:47:24 22° NNE 17:50:13 87° WNW 17:54:34 10° SSW
SL-24 R/B 3.5 17:49:33 56° NNE 17:50:18 85° ESE 17:53:58 10° SSW
Cosmos 1603 3.6 17:48:22 10° SSW 17:53:59 89° SE 17:56:56 30° NNE
CZ-2D R/B 3.3 17:51:36 10° S 17:55:25 77° WSW 17:59:16 10° NNW
Cosmos 1943 3.1 17:51:42 10° SSW 17:57:21 84° ESE 17:59:58 34° NNE
H-2A R/B 4.4 17:54:29 10° NNW 17:57:38 21° WNW 18:00:50 10° WSW
Cosmos 2369 Rocket 2.9 17:53:44 10° NW 17:59:16 53° WSW 18:04:44 10° S
Cosmos 1943 Rocket 3.9 17:55:28 10° NW 18:00:20 32° WSW 18:05:14 10° SSW
Meteor 1-5 Rocket 4.3 17:55:34 10° NNW 18:01:31 84° W 18:07:14 10° S
Okean O Rocket 4.2 17:59:06 10° SW 18:02:26 21° W 18:05:49 10° NW
Okean-O 2.5 17:59:18 10° SSE 18:03:44 87° ENE 18:08:12 10° NNW
Cosmos 1461 4.2 17:59:52 10° S 18:02:44 31° SSE 18:02:44 31° SSE
Cosmos 1371 Rocket 4.3 17:59:27 10° NNW 18:03:40 47° NNE 18:03:40 47° NNE
ARGOS 4.1 18:08:32 32° NNE 18:08:32 32° NNE 18:11:37 10° N
ISS -2.0 18:04:06 10° WNW 18:05:55 27° NW 18:05:55 27° NW
CENTAUR R/B 2.6 18:01:56 10° S 18:07:30 48° ESE 18:07:45 48° ESE
Cosmos 2112 Rocket 4.1 18:05:06 10° S 18:09:53 58° SE 18:09:53 58° SE
Cosmos 2056 Rocket 4.1 18:05:39 10° NNW 18:09:28 42° NNE 18:09:28 42° NNE
ERS-2 3.8 18:10:45 21° NNW 18:12:30 32° WNW 18:15:46 10° SW
SKYMED 2 4.4 18:11:44 22° N 18:14:14 49° WNW 18:18:25 10° SW
NOSS 3-2 (C) 3.5 18:10:11 10° SSW 18:15:09 51° SE 18:15:09 51° SE
Cosmos 1869 Rocket 3.7 18:13:29 10° NNW 18:22:43 - S 18:17:49 75° WNW
BREEZE-M DEB (TANK) 3.4 18:13:07 10° WSW 18:19:59 63° SSW 18:19:59 63° SSW
Meteor 1-27 Rocket 3.9 18:15:53 10° S 18:20:11 53° SSE 18:20:11 53° SSE
Meteor 1-10 Rocket 4.4 18:20:14 10° SSW 18:25:51 71° WNW 18:28:49 29° N
Lacrosse 5 rocket 3.6 18:24:31 10° WNW 18:25:53 15° NW 18:25:53 15° NW
Cosmos 371 Rocket 4.2 18:24:58 10° NNW 18:28:01 38° NNW 18:28:01 38° NNW
CZ-4B R/B 4.3 18:29:34 12° NW 18:30:27 13° WNW 18:32:00 10° W
NOSS 3-2 (A) 3.5 18:35:15 10° SW 18:40:56 72° NW 18:41:27 68° NNW
YAOGAN 1 4.2 18:46:28 31° NW 18:46:28 31° NW 18:49:09 10° NNW
Cosmos 1535 Rocket 4.5 18:39:19 10° NNW 18:45:26 75° W 18:51:32 10° S
USA 215 3.1 18:46:42 80° NNE 18:47:05 87° NW 18:53:38 10° WSW
MOS 1 Rocket 4.4 18:52:44 42° NW 18:53:53 49° WNW 18:59:02 10° SW
USA 238 DEB 3.8 18:53:47 10° SW 19:00:21 65° NW 19:00:35 65° NW
USA 238 3.8 18:53:52 10° SW 19:00:26 66° NW 19:00:39 65° NW
USA 281 4.3 19:06:33 10° S 19:12:40 41° WSW 19:18:49 10° NW
H-2A R/B 3.5 19:15:55 33° W 19:15:55 33° W 19:20:05 10° NNW
CZ-4 R/B 4.4 19:17:28 13° WNW 19:17:28 13° WNW 19:18:34 10° NW
USA 267 3.7 19:21:32 57° WNW 19:21:32 57° WNW 19:26:41 10° NW
CENTAUR R/B 4.3 19:52:23 10° WSW 19:54:58 25° W 19:54:58 25° W
